"startDT [UTC]","vpos","CH4 [ppm]","stdev(CH4) [ppm]","CO2 [ppm]","stdev(CO2) [ppm]","H2O [ppm]","stdev(H2O)","p_LGR [torr]","T_LGR [C]","mt1_LGR [us]","mt2_LGR [us]","T_ECpre [C]","T_EC1 [C]","T_EC2 [C]","p_inlet [hPa]","p_in [hPa]","p_out [hPa]","T_inlet [C]","RH_inlet [%]","dwpt_inlet [C]","T_vent [C]","RH_vent [%]","dwpt_vent [C]","flow_vent [l min-1]","flow_inlet [l min-1]","dwpt_sample [C]","T_room [C]"
2013-01-06 00:00:00,0.0,1.9194,0.0010,403.15,0.36,37.8,25.1,138.04,31.78,24.65,36.41,0.04,-272.75,-272.75,-47,561,-939,25.5,1.7,-28.8,25.8,1.8,-28.3,5.73,2.35,-27.0,30.9
2013-01-06 00:01:00,0.0,1.9196,0.0008,403.16,0.35,36.9,29.5,138.04,31.77,24.65,36.41,0.04,-272.75,-272.75,-47,561,-938,25.5,1.7,-28.8,25.8,1.8,-28.4,5.73,2.33,-27.1,30.9
2013-01-06 00:02:00,0.0,1.9193,0.0009,403.26,0.31,36.3,29.3,138.04,31.77,24.66,36.41,0.04,-272.75,-272.75,-47,561,-938,25.5,1.7,-28.9,25.7,1.8,-28.4,5.73,2.37,-27.1,30.9
2013-01-06 00:03:00,0.0,1.9198,0.0009,403.14,0.34,33.1,26.7,138.04,31.76,24.65,36.41,0.04,-272.75,-272.75,-47,561,-938,25.5,1.7,-28.8,25.7,1.8,-28.4,5.73,2.42,-27.1,30.9
2013-01-06 00:04:00,0.0,1.9200,0.0010,403.20,0.32,42.0,30.4,138.04,31.76,24.65,36.41,0.04,-272.74,-272.75,-47,561,-938,25.5,1.7,-28.9,25.7,1.8,-28.5,5.73,2.40,-27.1,30.9
2013-01-06 00:05:00,0.0,1.9193,0.0008,403.14,0.38,35.0,27.2,138.04,31.76,24.66,36.41,0.04,-272.75,-272.75,-47,561,-938,25.5,1.7,-28.8,25.7,1.8,-28.4,5.73,2.35,-27.1,30.9
2013-01-06 00:06:00,0.0,1.9191,0.0010,403.27,0.42,35.5,26.9,138.04,31.75,24.66,36.40,0.04,-272.75,-272.75,-47,561,-938,25.5,1.7,-28.9,25.7,1.8,-28.4,5.73,2.32,-27.1,30.9
2013-01-06 00:07:00,0.0,1.9198,0.0008,403.35,0.36,41.6,28.4,138.04,31.75,24.65,36.40,0.04,-272.75,-272.75,-47,561,-938,25.5,1.7,-28.9,25.7,1.8,-28.4,5.73,2.37,-27.1,30.9
2013-01-06 00:08:00,0.0,1.9200,0.0010,403.29,0.30,43.1,27.5,138.04,31.75,24.65,36.41,0.04,-272.75,-272.75,-47,561,-938,25.5,1.7,-28.9,25.7,1.8,-28.4,5.73,2.41,-27.1,30.9
2013-01-06 00:09:00,0.0,1.9200,0.0011,403.25,0.36,30.8,26.2,138.04,31.75,24.65,36.40,0.04,-272.75,-272.75,-47,561,-938,25.5,2.1,-26.8,25.7,2.1,-26.5,5.73,2.40,-27.1,30.9
2013-01-06 00:10:00,0.0,1.9197,0.0008,403.42,0.30,32.6,27.5,138.04,31.75,24.65,36.40,0.04,-272.74,-272.76,-47,561,-938,25.5,1.8,-28.3,25.7,1.9,-27.9,5.73,2.35,-27.1,30.8
2013-01-06 00:11:00,0.0,1.9203,0.0010,403.29,0.31,37.2,29.7,138.04,31.74,24.65,36.41,0.04,-272.74,-272.74,-47,561,-938,25.4,1.8,-28.7,25.7,1.8,-28.2,5.73,2.32,-27.1,30.8
2013-01-06 00:12:00,0.0,1.9199,0.0007,403.27,0.43,42.3,30.7,138.04,31.74,24.65,36.40,0.04,-272.75,-272.75,-47,561,-938,25.4,1.8,-28.7,25.7,1.8,-28.3,5.73,2.36,-27.1,30.8
2013-01-06 00:13:00,0.0,1.9197,0.0011,403.27,0.37,36.4,25.5,138.04,31.74,24.65,36.41,0.04,-272.75,-272.75,-47,561,-938,25.4,1.8,-28.7,25.7,1.8,-28.2,5.73,2.41,-27.1,30.8
2013-01-06 00:14:00,0.0,1.9200,0.0010,403.28,0.32,33.6,27.1,138.04,31.74,24.65,36.40,0.04,-272.75,-272.75,-47,561,-938,25.4,1.8,-28.7,25.7,1.8,-28.2,5.73,2.41,-27.1,30.8
2013-01-06 00:15:00,0.0,1.9199,0.0011,403.26,0.27,33.1,28.8,138.04,31.73,24.65,36.41,0.04,-272.76,-272.75,-47,561,-938,25.4,1.8,-28.5,25.7,1.8,-28.3,5.73,2.35,-27.1,30.8
2013-01-06 00:16:00,0.0,1.9197,0.0008,403.16,0.34,34.6,22.2,138.04,31.73,24.66,36.41,0.04,-272.75,-272.76,-47,561,-938,25.4,1.8,-28.6,25.6,1.8,-28.2,5.73,2.33,-27.1,30.8
2013-01-06 00:17:00,0.0,1.9195,0.0008,403.14,0.38,40.1,26.6,138.04,31.72,24.66,36.41,0.04,-272.75,-272.75,-47,561,-938,25.4,1.8,-28.6,25.6,1.8,-28.2,5.73,2.36,-27.1,30.8
2013-01-06 00:18:00,0.0,1.9200,0.0008,403.34,0.32,34.4,28.9,138.04,31.72,24.65,36.40,0.04,-272.75,-272.75,-47,561,-938,25.4,1.8,-28.6,25.6,1.8,-28.1,5.73,2.41,-27.1,30.8
2013-01-06 00:19:00,0.0,1.9200,0.0010,403.33,0.39,33.9,25.4,138.05,31.72,24.65,36.40,0.04,-272.75,-272.75,-47,561,-938,25.4,1.8,-28.6,25.6,1.8,-28.1,5.73,2.41,-27.1,30.8
2013-01-06 00:20:00,0.0,1.9196,0.0011,403.31,0.30,38.5,27.7,138.05,31.71,24.65,36.40,0.04,-272.74,-272.75,-47,561,-938,25.4,1.8,-28.6,25.6,1.8,-28.2,5.73,2.37,-27.1,30.8
2013-01-06 00:21:00,0.0,1.9199,0.0010,403.23,0.35,41.3,27.3,138.05,31.71,24.65,36.41,0.04,-272.75,-272.75,-47,561,-938,25.4,1.8,-28.6,25.6,1.8,-28.1,5.73,2.33,-27.1,30.8
2013-01-06 00:22:00,0.0,1.9199,0.0009,403.20,0.38,37.7,28.9,138.04,31.70,24.65,36.41,0.04,-272.75,-272.75,-47,561,-938,25.4,1.8,-28.6,25.6,1.8,-28.1,5.73,2.35,-27.1,30.8
2013-01-06 00:23:00,0.0,1.9195,0.0009,403.14,0.32,35.1,27.4,138.04,31.70,24.65,36.41,0.04,-272.75,-272.75,-47,561,-938,25.4,1.8,-28.6,25.6,1.8,-28.1,5.73,2.40,-27.1,30.8
2013-01-06 00:24:00,0.0,1.9193,0.0008,403.21,0.36,29.1,26.0,138.05,31.69,24.65,36.40,0.04,-272.75,-272.75,-47,561,-938,25.3,1.8,-28.6,25.6,1.8,-28.2,5.73,2.42,-27.2,30.7
2013-01-06 00:25:00,0.0,1.9195,0.0008,403.20,0.35,36.2,29.3,138.05,31.69,24.65,36.41,0.04,-272.75,-272.75,-47,561,-938,25.3,1.8,-28.6,25.6,1.8,-28.2,5.73,2.39,-27.2,30.8
2013-01-06 00:26:00,0.0,1.9193,0.0008,403.14,0.36,32.0,23.4,138.05,31.69,24.65,36.41,0.04,-272.75,-272.75,-47,560,-938,25.3,1.8,-28.5,25.6,1.8,-28.1,5.73,2.34,-27.2,30.8
2013-01-06 00:27:00,0.0,1.9196,0.0009,403.14,0.39,34.5,27.6,138.05,31.68,24.65,36.41,0.04,-272.75,-272.75,-47,560,-938,25.3,1.8,-28.4,25.6,1.8,-28.1,5.73,2.34,-27.2,30.7
2013-01-06 00:28:00,0.0,1.9197,0.0010,403.15,0.32,34.1,33.6,138.05,31.68,24.65,36.41,0.04,-272.75,-272.75,-47,560,-938,25.3,1.8,-28.5,25.6,1.8,-28.1,5.73,2.39,-27.2,30.7
2013-01-06 00:29:00,0.0,1.9201,0.0012,403.21,0.36,27.8,27.1,138.05,31.68,24.65,36.41,0.04,-272.75,-272.75,-47,560,-938,25.3,1.8,-28.5,25.6,1.8,-28.1,5.73,2.42,-27.2,30.7
2013-01-06 00:30:00,0.0,1.9194,0.0010,403.26,0.45,40.0,28.2,138.05,31.68,24.66,36.40,0.04,-272.75,-272.75,-47,560,-938,25.3,1.8,-28.4,25.5,1.8,-28.2,5.73,2.40,-27.2,30.7
2013-01-06 00:31:00,0.0,1.9200,0.0011,403.26,0.34,39.1,28.0,138.05,31.67,24.65,36.40,0.04,-272.75,-272.75,-47,560,-938,25.3,1.8,-28.5,25.5,1.8,-28.2,5.73,2.36,-27.2,30.7
2013-01-06 00:32:00,0.0,1.9198,0.0009,403.12,0.41,28.1,27.9,138.05,31.67,24.66,36.41,0.04,-272.75,-272.75,-47,560,-938,25.3,1.8,-28.4,25.5,1.8,-28.2,5.73,2.33,-27.2,30.7
2013-01-06 00:33:00,0.0,1.9202,0.0009,403.20,0.33,34.2,27.5,138.05,31.67,24.65,36.41,0.04,-272.75,-272.75,-47,560,-938,25.3,1.8,-28.5,25.5,1.8,-28.2,5.73,2.36,-27.2,30.7
2013-01-06 00:34:00,0.0,1.9201,0.0009,403.17,0.39,33.2,29.3,138.05,31.66,24.65,36.41,0.04,-272.75,-272.75,-47,560,-938,25.3,1.8,-28.5,25.5,1.8,-28.2,5.73,2.41,-27.2,30.7
2013-01-06 00:35:00,0.0,1.9202,0.0009,403.18,0.36,38.6,30.0,138.05,31.66,24.65,36.41,0.04,-272.75,-272.75,-47,560,-938,25.3,1.8,-28.5,25.5,1.8,-28.2,5.73,2.42,-27.2,30.7
2013-01-06 00:36:00,0.0,1.9202,0.0008,403.18,0.40,36.4,28.9,138.05,31.65,24.65,36.41,0.04,-272.75,-272.75,-47,560,-938,25.3,1.8,-28.5,25.5,1.8,-28.2,5.73,2.37,-27.2,30.7
2013-01-06 00:37:00,0.0,1.9206,0.0010,403.20,0.36,35.8,28.4,138.05,31.65,24.65,36.41,0.04,-272.75,-272.75,-47,560,-938,25.3,1.8,-28.7,25.5,1.8,-28.2,5.73,2.33,-27.2,30.7
2013-01-06 00:38:00,0.0,1.9202,0.0010,403.31,0.40,32.3,28.7,138.05,31.65,24.65,36.41,0.04,-272.75,-272.75,-47,560,-938,25.3,1.8,-28.6,25.5,1.8,-28.2,5.73,2.35,-27.2,30.7
2013-01-06 00:39:00,0.0,1.9201,0.0011,403.19,0.42,38.9,29.0,138.05,31.64,24.65,36.41,0.04,-272.75,-272.75,-47,560,-938,25.3,1.8,-28.6,25.5,1.8,-28.1,5.73,2.40,-27.2,30.7
2013-01-06 00:40:00,0.0,1.9202,0.0010,403.25,0.42,29.3,22.6,138.05,31.64,24.65,36.40,0.04,-272.75,-272.75,-47,560,-938,25.3,1.8,-28.6,25.5,1.8,-28.2,5.73,2.42,-27.2,30.7
2013-01-06 00:41:00,0.0,1.9207,0.0010,403.19,0.36,33.9,27.5,138.05,31.63,24.65,36.41,0.04,-272.75,-272.75,-47,560,-938,25.3,1.8,-28.6,25.5,1.8,-28.2,5.73,2.39,-27.2,30.6
2013-01-06 00:42:00,0.0,1.9204,0.0009,403.23,0.40,36.3,26.2,138.05,31.63,24.65,36.41,0.04,-272.75,-272.75,-47,560,-938,25.3,1.8,-28.7,25.5,1.8,-28.2,5.73,2.35,-27.2,30.6
2013-01-06 00:43:00,0.0,1.9208,0.0010,403.32,0.38,40.7,28.6,138.05,31.63,24.65,36.40,0.04,-272.75,-272.75,-47,560,-938,25.3,1.8,-28.6,25.5,1.8,-28.2,5.73,2.33,-27.2,30.7
2013-01-06 00:44:00,0.0,1.9206,0.0010,403.30,0.37,37.3,28.8,138.05,31.62,24.65,36.40,0.04,-272.75,-272.75,-47,560,-938,25.3,1.8,-28.6,25.5,1.8,-28.2,5.73,2.37,-27.2,30.6
2013-01-06 00:45:00,0.0,1.9207,0.0009,403.14,0.40,34.1,25.9,138.05,31.62,24.65,36.41,0.04,-272.75,-272.75,-47,560,-938,25.3,1.8,-28.7,25.5,1.8,-28.2,5.73,2.41,-27.2,30.6
2013-01-06 00:46:00,0.0,1.9197,0.0008,403.16,0.35,34.7,26.1,138.05,31.61,24.66,36.41,0.04,-272.75,-272.75,-47,560,-938,25.3,1.8,-28.7,25.5,1.8,-28.2,5.73,2.41,-27.2,30.6
2013-01-06 00:47:00,0.0,1.9200,0.0010,403.22,0.44,40.3,27.2,138.05,31.61,24.66,36.41,0.04,-272.75,-272.75,-47,560,-938,25.3,1.8,-28.7,25.5,1.8,-28.2,5.73,2.37,-27.2,30.6
2013-01-06 00:48:00,0.0,1.9205,0.0009,403.18,0.42,26.5,24.0,138.05,31.61,24.65,36.41,0.04,-272.75,-272.75,-47,560,-938,25.2,1.8,-28.7,25.5,1.8,-28.2,5.73,2.35,-27.2,30.6
2013-01-06 00:49:00,0.0,1.9209,0.0010,403.24,0.42,29.5,26.4,138.05,31.61,24.65,36.41,0.04,-272.76,-272.75,-47,560,-938,25.3,1.8,-28.6,25.5,1.8,-28.2,5.73,2.34,-27.2,30.6
2013-01-06 00:50:00,0.0,1.9206,0.0008,403.19,0.42,33.5,24.0,138.05,31.60,24.66,36.41,0.04,-272.75,-272.75,-47,560,-938,25.2,1.8,-28.7,25.5,1.8,-28.2,5.73,2.38,-27.2,30.6
2013-01-06 00:51:00,0.0,1.9211,0.0010,403.21,0.41,31.6,30.2,138.05,31.60,24.65,36.40,0.04,-272.75,-272.75,-47,560,-938,25.3,1.8,-28.7,25.5,1.8,-28.2,5.73,2.42,-27.2,30.6
2013-01-06 00:52:00,0.0,1.9214,0.0009,403.33,0.40,32.6,25.6,138.05,31.60,24.65,36.41,0.04,-272.75,-272.75,-47,560,-938,25.2,1.8,-28.7,25.5,1.8,-28.3,5.73,2.41,-27.2,30.6
2013-01-06 00:53:00,0.0,1.9213,0.0008,403.27,0.37,37.0,29.6,138.05,31.59,24.65,36.41,0.04,-272.75,-272.75,-47,560,-938,25.2,1.8,-28.7,25.5,1.8,-28.4,5.73,2.36,-27.2,30.6
2013-01-06 00:54:00,0.0,1.9215,0.0008,403.25,0.46,34.2,27.8,138.05,31.59,24.65,36.41,0.04,-272.75,-272.75,-47,560,-938,25.2,1.8,-28.6,25.5,1.8,-28.4,5.73,2.34,-27.2,30.6
2013-01-06 00:55:00,0.0,1.9219,0.0010,403.37,0.43,31.3,25.8,138.05,31.58,24.65,36.41,0.04,-272.75,-272.75,-47,560,-938,25.2,1.8,-28.8,25.5,1.8,-28.3,5.73,2.35,-27.2,30.6
2013-01-06 00:56:00,0.0,1.9223,0.0009,403.36,0.42,39.4,27.9,138.05,31.58,24.65,36.41,0.04,-272.75,-272.75,-47,560,-938,25.2,1.8,-28.8,25.5,1.8,-28.4,5.73,2.40,-27.2,30.6
2013-01-06 00:57:00,0.0,1.9225,0.0009,403.45,0.37,32.6,25.8,138.05,31.57,24.65,36.40,0.04,-272.75,-272.75,-47,560,-938,25.2,1.8,-28.8,25.5,1.8,-28.5,5.73,2.42,-27.2,30.6
2013-01-06 00:58:00,0.0,1.9225,0.0010,403.49,0.42,41.5,26.0,138.05,31.57,24.65,36.41,0.04,-272.75,-272.75,-47,560,-938,25.2,1.8,-28.8,25.5,1.8,-28.6,5.73,2.40,-27.2,30.6
2013-01-06 00:59:00,0.0,1.9226,0.0009,403.50,0.40,36.2,26.7,138.05,31.57,24.66,36.40,0.04,-272.75,-272.75,-47,560,-938,25.2,1.7,-29.0,25.5,1.8,-28.6,5.73,2.36,-27.2,30.6
2013-01-06 01:00:00,0.0,1.9230,0.0009,403.24,0.39,29.4,27.6,138.05,31.56,24.65,36.41,0.04,-272.75,-272.75,-47,560,-938,25.2,1.7,-29.0,25.5,1.8,-28.5,5.73,2.34,-27.2,30.6
2013-01-06 01:01:00,0.0,1.9228,0.0008,403.30,0.40,40.0,29.3,138.05,31.56,24.65,36.41,0.04,-272.75,-272.75,-47,560,-938,25.2,1.7,-28.9,25.5,1.8,-28.6,5.73,2.36,-27.2,30.6
2013-01-06 01:02:00,0.0,1.9221,0.0009,403.21,0.38,40.5,29.7,138.05,31.55,24.65,36.42,0.04,-272.75,-272.75,-47,560,-938,25.2,1.7,-29.0,25.5,1.8,-28.5,5.73,2.41,-27.2,30.6
2013-01-06 01:03:00,0.0,1.9223,0.0008,403.30,0.41,35.7,29.1,138.05,31.55,24.65,36.41,0.04,-272.75,-272.75,-47,559,-938,25.2,1.7,-29.0,25.5,1.8,-28.5,5.73,2.42,-27.2,30.6
2013-01-06 01:04:00,0.0,1.9218,0.0009,403.27,0.42,34.5,27.2,138.05,31.55,24.65,36.41,0.04,-272.75,-272.75,-47,560,-938,25.2,1.7,-29.0,25.5,1.8,-28.6,5.73,2.39,-27.2,30.6
2013-01-06 01:05:00,0.0,1.9221,0.0009,403.30,0.35,40.5,24.9,138.05,31.54,24.65,36.41,0.04,-272.75,-272.75,-47,560,-938,25.2,1.7,-29.0,25.5,1.8,-28.5,5.73,2.35,-27.2,30.5
2013-01-06 01:06:00,0.0,1.9228,0.0008,403.33,0.45,39.3,31.1,138.05,31.54,24.65,36.41,0.04,-272.75,-272.75,-47,560,-938,25.2,1.7,-29.0,25.5,1.8,-28.5,5.73,2.34,-27.2,30.5
2013-01-06 01:07:00,0.0,1.9221,0.0008,403.35,0.32,32.4,26.9,138.05,31.53,24.65,36.41,0.04,-272.75,-272.75,-47,559,-938,25.2,1.7,-29.0,25.5,1.8,-28.6,5.73,2.37,-27.2,30.5
2013-01-06 01:08:00,0.0,1.9221,0.0009,403.45,0.48,30.6,23.4,138.05,31.53,24.65,36.40,0.04,-272.75,-272.75,-47,559,-938,25.2,1.7,-29.0,25.4,1.8,-28.5,5.73,2.41,-27.2,30.5
2013-01-06 01:09:00,0.0,1.9221,0.0009,403.21,0.33,35.9,30.1,138.05,31.52,24.65,36.41,0.04,-272.75,-272.75,-47,559,-938,25.2,1.7,-29.0,25.5,1.8,-28.6,5.73,2.42,-27.2,30.5
2013-01-06 01:10:00,0.0,1.9217,0.0009,403.28,0.40,35.6,25.6,138.05,31.52,24.65,36.41,0.04,-272.75,-272.75,-47,559,-938,25.2,1.8,-28.9,25.4,1.8,-28.5,5.73,2.38,-27.2,30.5
2013-01-06 01:11:00,0.0,1.9226,0.0010,403.43,0.44,30.8,24.2,138.05,31.51,24.65,36.41,0.04,-272.75,-272.75,-47,559,-938,25.2,1.8,-28.9,25.4,1.8,-28.5,5.73,2.34,-27.2,30.5
2013-01-06 01:12:00,0.0,1.9228,0.0009,403.36,0.42,34.3,23.6,138.05,31.51,24.65,36.41,0.04,-272.75,-272.75,-47,559,-938,25.2,1.8,-28.8,25.4,1.8,-28.6,5.73,2.34,-27.2,30.5
2013-01-06 01:13:00,0.0,1.9232,0.0010,403.42,0.42,37.3,26.1,138.05,31.50,24.65,36.41,0.04,-272.75,-272.75,-47,559,-938,25.2,1.7,-29.0,25.4,1.8,-28.5,5.73,2.38,-27.2,30.5
2013-01-06 01:14:00,0.0,1.9233,0.0010,403.36,0.37,35.3,27.9,138.05,31.50,24.65,36.41,0.04,-272.75,-272.75,-47,559,-938,25.2,1.7,-29.0,25.5,1.8,-28.6,5.73,2.41,-27.2,30.5
2013-01-06 01:15:00,0.0,1.9233,0.0010,403.37,0.36,27.0,24.7,138.05,31.50,24.65,36.41,0.04,-272.75,-272.75,-47,559,-938,25.2,1.7,-29.0,25.4,1.8,-28.6,5.73,2.41,-27.2,30.5
2013-01-06 01:16:00,0.0,1.9232,0.0008,403.35,0.44,30.9,26.5,138.05,31.49,24.65,36.41,0.04,-272.75,-272.75,-47,559,-938,25.2,1.7,-29.0,25.4,1.8,-28.5,5.73,2.38,-27.2,30.5
2013-01-06 01:17:00,0.0,1.9228,0.0008,403.31,0.40,32.9,23.7,138.05,31.49,24.65,36.41,0.04,-272.75,-272.75,-47,559,-938,25.2,1.8,-28.9,25.4,1.8,-28.5,5.73,2.34,-27.2,30.5
2013-01-06 01:18:00,0.0,1.9231,0.0009,403.48,0.41,32.5,26.9,138.05,31.49,24.65,36.41,0.04,-272.75,-272.75,-47,559,-938,25.2,1.8,-28.9,25.4,1.8,-28.5,5.73,2.35,-27.2,30.5
2013-01-06 01:19:00,0.0,1.9234,0.0009,403.37,0.39,31.5,28.1,138.05,31.48,24.65,36.41,0.04,-272.75,-272.75,-47,559,-938,25.2,1.8,-28.8,25.4,1.8,-28.4,5.73,2.39,-27.2,30.5
2013-01-06 01:20:00,0.0,1.9232,0.0010,403.37,0.40,35.1,28.2,138.05,31.48,24.65,36.41,0.04,-272.75,-272.75,-47,559,-938,25.2,1.8,-28.9,25.4,1.8,-28.4,5.73,2.42,-27.2,30.5
2013-01-06 01:21:00,0.0,1.9234,0.0009,403.53,0.41,27.6,27.1,138.05,31.47,24.65,36.41,0.04,-272.75,-272.75,-47,559,-938,25.2,1.8,-28.9,25.4,1.8,-28.4,5.73,2.41,-27.2,30.5
2013-01-06 01:22:00,0.0,1.9230,0.0008,403.42,0.35,32.4,26.2,138.05,31.47,24.65,36.41,0.04,-272.75,-272.75,-47,559,-938,25.2,1.7,-28.9,25.4,1.8,-28.4,5.73,2.37,-27.2,30.5
2013-01-06 01:23:00,0.0,1.9233,0.0009,403.32,0.40,30.1,26.4,138.05,31.47,24.65,36.42,0.04,-272.75,-272.75,-47,559,-938,25.1,1.8,-28.9,25.4,1.8,-28.4,5.73,2.34,-27.2,30.5
2013-01-06 01:24:00,0.0,1.9236,0.0008,403.58,0.37,34.4,27.3,138.05,31.47,24.65,36.41,0.04,-272.75,-272.75,-47,559,-938,25.2,1.8,-28.9,25.4,1.8,-28.4,5.73,2.35,-27.2,30.5
2013-01-06 01:25:00,0.0,1.9236,0.0009,403.45,0.40,30.9,26.9,138.05,31.46,24.65,36.41,0.04,-272.75,-272.75,-47,559,-938,25.2,1.8,-28.9,25.4,1.8,-28.4,5.73,2.39,-27.2,30.5
2013-01-06 01:26:00,0.0,1.9228,0.0010,403.46,0.42,38.3,25.7,138.05,31.46,24.66,36.41,0.04,-272.75,-272.75,-47,559,-938,25.1,1.8,-28.9,25.4,1.8,-28.4,5.73,2.42,-27.2,30.5
2013-01-06 01:27:00,0.0,1.9230,0.0010,403.49,0.34,28.2,24.3,138.05,31.45,24.65,36.41,0.04,-272.75,-272.75,-46,559,-938,25.1,1.8,-28.8,25.3,1.8,-28.4,5.73,2.40,-27.2,30.5
2013-01-06 01:28:00,0.0,1.9235,0.0009,403.49,0.42,29.0,28.5,138.05,31.45,24.65,36.41,0.04,-272.75,-272.75,-47,559,-938,25.1,1.8,-28.7,25.3,1.8,-28.5,5.73,2.37,-27.2,30.5
2013-01-06 01:29:00,0.0,1.9246,0.0011,403.56,0.38,32.7,26.7,138.05,31.44,24.65,36.41,0.04,-272.75,-272.75,-47,559,-938,25.1,1.8,-28.8,25.3,1.8,-28.4,5.73,2.34,-27.2,30.4
2013-01-06 01:30:00,0.0,1.9251,0.0010,403.56,0.30,26.3,20.7,138.05,31.44,24.65,36.42,0.04,-272.75,-272.75,-47,559,-938,25.1,1.7,-29.0,25.4,1.8,-28.4,5.73,2.35,-27.2,30.4
2013-01-06 01:31:00,0.0,1.9257,0.0009,403.69,0.45,27.0,25.1,138.05,31.43,24.65,36.41,0.04,-272.75,-272.75,-47,559,-938,25.1,1.8,-29.0,25.3,1.8,-28.5,5.73,2.39,-27.2,30.4
2013-01-06 01:32:00,0.0,1.9257,0.0009,403.54,0.45,23.9,22.5,138.05,31.43,24.65,36.41,0.04,-272.75,-272.75,-47,559,-938,25.1,1.8,-28.9,25.3,1.8,-28.6,5.73,2.43,-27.2,30.4
2013-01-06 01:33:00,0.0,1.9259,0.0010,403.56,0.41,25.4,23.1,138.05,31.42,24.65,36.41,0.04,-272.75,-272.75,-47,559,-938,25.1,1.8,-29.0,25.3,1.8,-28.6,5.73,2.41,-27.2,30.4
2013-01-06 01:34:00,0.0,1.9258,0.0009,403.74,0.44,26.8,26.4,138.05,31.42,24.65,36.40,0.04,-272.75,-272.75,-47,559,-938,25.1,1.8,-28.9,25.3,1.8,-28.6,5.73,2.36,-27.2,30.4
2013-01-06 01:35:00,0.0,1.9259,0.0009,403.68,0.46,31.2,25.2,138.05,31.42,24.65,36.41,0.04,-272.75,-272.75,-47,559,-938,25.1,1.8,-28.9,25.3,1.8,-28.6,5.73,2.34,-27.2,30.4
2013-01-06 01:36:00,0.0,1.9257,0.0009,403.66,0.42,29.0,26.1,138.05,31.41,24.65,36.41,0.04,-272.75,-272.75,-46,559,-938,25.1,1.8,-28.9,25.3,1.8,-28.6,5.73,2.35,-27.2,30.4
2013-01-06 01:37:00,0.0,1.9258,0.0009,403.73,0.40,31.7,24.9,138.05,31.41,24.65,36.41,0.04,-272.75,-272.75,-46,559,-938,25.1,1.8,-28.9,25.3,1.8,-28.6,5.73,2.39,-27.2,30.4
2013-01-06 01:38:00,0.0,1.9258,0.0008,403.75,0.38,27.7,27.5,138.05,31.40,24.65,36.41,0.04,-272.74,-272.75,-47,559,-938,25.1,1.8,-28.9,25.3,1.8,-28.6,5.73,2.42,-27.2,30.4
2013-01-06 01:39:00,0.0,1.9258,0.0010,403.66,0.36,28.9,24.2,138.05,31.40,24.65,36.41,0.04,-272.75,-272.75,-47,559,-938,25.1,1.7,-29.0,25.3,1.8,-28.6,5.73,2.41,-27.2,30.4
2013-01-06 01:40:00,0.0,1.9256,0.0008,403.59,0.44,39.2,32.2,138.05,31.39,24.65,36.41,0.04,-272.75,-272.75,-47,559,-938,25.1,1.8,-28.9,25.3,1.8,-28.6,5.73,2.38,-27.2,30.4
2013-01-06 01:41:00,0.0,1.9251,0.0008,403.61,0.43,28.2,21.5,138.05,31.39,24.65,36.41,0.04,-272.75,-272.75,-47,559,-938,25.1,1.8,-28.9,25.3,1.8,-28.6,5.73,2.34,-27.3,30.4
2013-01-06 01:42:00,0.0,1.9255,0.0010,403.54,0.47,28.8,28.8,138.05,31.39,24.65,36.41,0.04,-272.75,-272.75,-47,559,-938,25.1,1.8,-28.9,25.3,1.8,-28.5,5.73,2.35,-27.2,30.4
2013-01-06 01:43:00,0.0,1.9260,0.0008,403.58,0.43,26.2,25.4,138.05,31.38,24.65,36.41,0.04,-272.75,-272.75,-47,559,-938,25.0,1.7,-29.0,25.3,1.8,-28.5,5.73,2.38,-27.2,30.4
2013-01-06 01:44:00,0.0,1.9260,0.0009,403.67,0.45,36.3,25.8,138.05,31.38,24.65,36.41,0.04,-272.75,-272.75,-47,559,-938,25.0,1.8,-29.0,25.3,1.8,-28.7,5.73,2.41,-27.3,30.4
2013-01-06 01:45:00,0.0,1.9258,0.0010,403.56,0.43,26.3,26.1,138.05,31.37,24.66,36.41,0.04,-272.75,-272.75,-47,559,-938,25.1,1.7,-29.0,25.3,1.8,-28.7,5.73,2.42,-27.3,30.4
2013-01-06 01:46:00,0.0,1.9263,0.0010,403.67,0.33,24.2,23.7,138.05,31.37,24.65,36.41,0.04,-272.75,-272.75,-46,559,-938,25.0,1.7,-29.1,25.3,1.8,-28.6,5.73,2.39,-27.3,30.4
2013-01-06 01:47:00,0.0,1.9261,0.0010,403.61,0.40,28.1,26.8,138.05,31.37,24.65,36.41,0.04,-272.75,-272.75,-46,559,-938,25.0,1.7,-29.1,25.3,1.8,-28.7,5.73,2.36,-27.3,30.4
2013-01-06 01:48:00,0.0,1.9261,0.0008,403.52,0.45,26.6,22.9,138.05,31.36,24.65,36.41,0.04,-272.75,-272.75,-47,559,-938,25.0,1.7,-29.0,25.3,1.8,-28.6,5.73,2.34,-27.2,30.4
2013-01-06 01:49:00,0.0,1.9258,0.0012,403.65,0.48,31.0,28.0,138.05,31.36,24.65,36.41,0.04,-272.75,-272.75,-47,559,-938,25.0,1.7,-29.1,25.3,1.8,-28.7,5.73,2.36,-27.3,30.4
2013-01-06 01:50:00,0.0,1.9259,0.0011,403.59,0.47,27.2,24.3,138.05,31.35,24.65,36.41,0.04,-272.75,-272.75,-47,559,-938,25.0,1.7,-29.1,25.3,1.8,-28.7,5.73,2.40,-27.3,30.4
2013-01-06 01:51:00,0.0,1.9262,0.0008,403.67,0.42,23.3,20.9,138.05,31.35,24.66,36.41,0.04,-272.75,-272.75,-47,559,-938,25.0,1.7,-29.1,25.3,1.8,-28.6,5.73,2.42,-27.3,30.4
2013-01-06 01:52:00,0.0,1.9265,0.0012,403.82,0.46,23.9,22.2,138.05,31.35,24.65,36.41,0.04,-272.75,-272.75,-47,559,-938,25.0,1.7,-29.1,25.3,1.8,-28.7,5.73,2.41,-27.3,30.4
2013-01-06 01:53:00,0.0,1.9261,0.0009,403.64,0.39,31.2,22.4,138.05,31.34,24.66,36.41,0.04,-272.75,-272.76,-47,558,-938,25.0,1.7,-29.1,25.2,1.8,-28.7,5.73,2.37,-27.3,30.3
2013-01-06 01:54:00,0.0,1.9260,0.0009,403.71,0.46,26.8,21.6,138.05,31.34,24.65,36.41,0.04,-272.75,-272.75,-47,558,-938,25.0,1.7,-29.2,25.2,1.8,-28.7,5.73,2.35,-27.3,30.4
2013-01-06 01:55:00,0.0,1.9257,0.0009,403.73,0.39,32.4,27.0,138.05,31.34,24.66,36.41,0.04,-272.75,-272.75,-47,558,-938,25.0,1.7,-29.2,25.2,1.8,-28.8,5.73,2.35,-27.3,30.4
2013-01-06 01:56:00,0.0,1.9262,0.0008,403.64,0.42,28.4,24.9,138.05,31.34,24.65,36.41,0.04,-272.75,-272.75,-46,558,-938,25.0,1.7,-29.1,25.2,1.8,-28.8,5.73,2.38,-27.3,30.3
2013-01-06 01:57:00,0.0,1.9262,0.0008,403.70,0.39,27.6,22.4,138.05,31.33,24.65,36.41,0.04,-272.75,-272.75,-47,558,-938,25.0,1.7,-29.1,25.2,1.8,-28.9,5.73,2.41,-27.3,30.3
2013-01-06 01:58:00,0.0,1.9266,0.0009,403.52,0.42,35.8,22.6,138.05,31.33,24.65,36.42,0.04,-272.75,-272.75,-47,558,-938,25.0,1.7,-29.1,25.2,1.8,-28.9,5.73,2.42,-27.3,30.3
2013-01-06 01:59:00,0.0,1.9269,0.0009,403.79,0.39,26.2,28.5,138.05,31.33,24.65,36.41,0.04,-272.75,-272.75,-47,558,-938,25.0,1.7,-29.2,25.2,1.8,-28.8,5.73,2.40,-27.3,30.3
2013-01-06 02:00:00,0.0,1.9268,0.0009,403.74,0.48,30.1,23.8,138.05,31.32,24.65,36.41,0.04,-272.75,-272.75,-47,558,-938,25.0,1.7,-29.2,25.2,1.8,-28.8,5.73,2.36,-27.3,30.3
2013-01-06 02:01:00,0.0,1.9268,0.0009,403.67,0.51,30.4,24.3,138.05,31.32,24.65,36.42,0.04,-272.75,-272.75,-47,558,-938,25.0,1.7,-29.2,25.2,1.8,-28.7,5.73,2.35,-27.3,30.3
2013-01-06 02:02:00,0.0,1.9268,0.0009,403.66,0.42,29.2,24.6,138.05,31.31,24.65,36.41,0.04,-272.75,-272.75,-47,558,-938,25.0,1.7,-29.2,25.2,1.8,-28.8,5.73,2.35,-27.3,30.3
2013-01-06 02:03:00,0.0,1.9265,0.0009,403.71,0.42,25.7,23.5,138.05,31.31,24.65,36.42,0.04,-272.75,-272.75,-47,558,-938,25.0,1.7,-29.2,25.2,1.8,-28.9,5.73,2.38,-27.3,30.3
2013-01-06 02:04:00,0.0,1.9271,0.0008,403.74,0.45,29.9,23.5,138.06,31.30,24.65,36.41,0.04,-272.75,-272.75,-47,558,-938,25.0,1.7,-29.1,25.2,1.8,-28.9,5.73,2.41,-27.3,30.3
2013-01-06 02:05:00,0.0,1.9269,0.0009,403.76,0.50,25.6,22.2,138.05,31.30,24.65,36.41,0.04,-272.75,-272.75,-47,558,-938,25.0,1.7,-29.1,25.2,1.8,-28.8,5.73,2.41,-27.3,30.3
2013-01-06 02:06:00,0.0,1.9267,0.0010,403.75,0.37,31.9,28.8,138.05,31.30,24.65,36.41,0.04,-272.75,-272.75,-47,558,-938,25.0,1.7,-29.1,25.2,1.8,-28.9,5.73,2.39,-27.3,30.3
2013-01-06 02:07:00,0.0,1.9260,0.0009,403.78,0.48,25.7,27.1,138.05,31.30,24.65,36.41,0.04,-272.75,-272.75,-46,558,-938,25.0,1.7,-29.1,25.2,1.8,-28.9,5.73,2.36,-27.3,30.3
2013-01-06 02:08:00,0.0,1.9269,0.0009,403.76,0.45,27.6,29.5,138.05,31.29,24.66,36.42,0.04,-272.75,-272.75,-46,558,-938,25.0,1.7,-29.1,25.2,1.8,-28.9,5.73,2.34,-27.3,30.3
2013-01-06 02:09:00,0.0,1.9263,0.0009,403.64,0.37,27.4,24.5,138.05,31.29,24.65,36.42,0.04,-272.75,-272.75,-46,558,-938,25.0,1.7,-29.2,25.2,1.8,-28.8,5.73,2.36,-27.3,30.3
2013-01-06 02:10:00,0.0,1.9257,0.0009,403.64,0.37,23.1,28.1,138.05,31.28,24.65,36.41,0.04,-272.75,-272.75,-46,558,-938,25.0,1.7,-29.2,25.2,1.8,-28.8,5.73,2.40,-27.3,30.3
2013-01-06 02:11:00,0.0,1.9258,0.0009,403.71,0.39,18.7,24.1,138.06,31.28,24.65,36.41,0.04,-272.75,-272.75,-47,558,-938,25.0,1.7,-29.1,25.2,1.8,-28.7,5.73,2.42,-27.3,30.3
2013-01-06 02:12:00,0.0,1.9252,0.0011,403.64,0.53,26.8,22.3,138.05,31.27,24.65,36.41,0.04,-272.75,-272.75,-47,558,-938,24.9,1.7,-29.1,25.2,1.8,-28.7,5.73,2.41,-27.3,30.3
2013-01-06 02:13:00,0.0,1.9249,0.0010,403.69,0.47,26.2,25.5,138.06,31.27,24.65,36.41,0.04,-272.75,-272.75,-47,558,-938,24.9,1.7,-29.2,25.2,1.8,-28.7,5.73,2.39,-27.3,30.3
2013-01-06 02:14:00,0.0,1.9251,0.0008,403.56,0.39,28.9,27.2,138.05,31.26,24.65,36.42,0.04,-272.75,-272.75,-47,558,-938,24.9,1.7,-29.1,25.2,1.8,-28.7,5.73,2.36,-27.3,30.3
2013-01-06 02:15:00,0.0,1.9246,0.0009,403.61,0.40,28.5,27.2,138.05,31.26,24.66,36.41,0.04,-272.75,-272.75,-47,558,-937,24.9,1.7,-29.2,25.2,1.8,-28.7,5.73,2.35,-27.3,30.3
2013-01-06 02:16:00,0.0,1.9257,0.0009,403.59,0.41,31.9,31.5,138.05,31.26,24.65,36.41,0.04,-272.75,-272.75,-47,558,-937,24.9,1.7,-29.1,25.2,1.8,-28.7,5.73,2.37,-27.3,30.3
2013-01-06 02:17:00,0.0,1.9250,0.0009,403.60,0.43,30.8,22.9,138.06,31.25,24.66,36.41,0.04,-272.75,-272.75,-47,558,-938,24.9,1.7,-29.2,25.2,1.8,-28.7,5.73,2.40,-27.3,30.3